MOLNIYA 3-40

Last updated on Jan. 24, 2021, 6:18 a.m. UTC

1 21196U 91022A   21023.00904048 -.00001237  00000-0  00000-0 0  9990
2 21196  64.8600  24.0087 6913304 280.7042  14.0403  2.03025938219326
UTC
Height (km)
Latitude
Longitude
Inclination
Orbital Period
UTC large
Height (km)
Speed (km/s)
/
Latitude / Longitude
Inclination (degrees)
Orbital Period (minutes)
Azimuth
Elevation
Range (km)
Doppler Factor
iOS Compass Heading
iOS Angle

Next 30 passes for location: Hong Kong

Rise time Rise Azimuth (degrees) Set time Set Azimuth (degrees) Duration Max altitude (degrees)

No matching passes for this satellites